Location: Olsztyn
(53.7767°N, 20.4765°E)
Time: 08:06:33
(UTC+01:00)

Transit 4A - Pass Details

Date: 01 October 2022
Orbit: 871 x 972 km, 66.8° (Epoch: 06 December)

Event Time Altitude Azimuth Distance (km) Brightness Sun altitude
Exits shadow 03:41:22 12° 313° (NW) 2,435 9.9 -25.9°
Maximum altitude 03:45:29 23° 1° (N) 1,802 9.7 -25.3°
Drops below altitude 10° 03:50:08 10° 53° (NE) 2,549 11.3 -24.8°
Sets 03:53:09 0° 68° (ENE) 3,478 12.3 -24.4°
